Terminal Aerodrome Forecast
Issued by NWS Raleigh/Durham, NC

Home | Current Version | Previous Version | Text Only | Print | Product List | Glossary On
Versions: 1 2 3 4 5 6 7 8 9 10 11 12 13 14 15 16 17 18 19 20 21 22 23 24 25 26 27 28 29 30 31 32 33 34 35 36 37 38 39 40 41 42 43
000
FTUS42 KRAH 261323 AAB
TAFGSO
TAF AMD
KGSO 261323Z 2613/2712 22008KT P6SM FEW009 SCT040
     FM261700 21008KT P6SM BKN045
     FM270600 20006KT P6SM SCT007 OVC015
     FM270900 20004KT 5SM BR OVC007=

USA.gov is the U.S. government's official web portal to all federal, state and local government web resources and services.